• In Belgien
  • Länderverzeichnis
  • Für 7 Tage
  • Wassertemperatur
  • Satellitenkarten
  • Wetterkarte
  • Widgets
  • user-avatar
    Anmelden

    Stündliche Wetter Przydroze

    Heute, 24 September, Montag

    Zeit Temperatur Niederschläge Wind Luftdruck Luftfeuchtigkeit
    00:00 +9°C° 0.6 mm 8 m/S 744 mmHg 89%
    01:00 +7°C° 0 mm 9 m/S 746 mmHg 84%
    02:00 +7°C° 0.1 mm 8 m/S 747 mmHg 84%
    03:00 +7°C° 0.1 mm 8 m/S 749 mmHg 84%
    04:00 +7°C° 0.1 mm 8 m/S 750 mmHg 84%
    05:00 +7°C° 0 mm 8 m/S 751 mmHg 83%
    06:00 +7°C° 0 mm 9 m/S 752 mmHg 82%
    07:00 +8°C° 0 mm 7 m/S 752 mmHg 80%
    08:00 +7°C° 0.1 mm 8 m/S 753 mmHg 77%
    09:00 +7°C° 0.1 mm 9 m/S 754 mmHg 74%
    10:00 +8°C° 0.1 mm 9 m/S 754 mmHg 71%
    11:00 +10°C° 0.1 mm 9 m/S 755 mmHg 67%
    12:00 +9°C° 0.1 mm 10 m/S 755 mmHg 62%
    13:00 +11°C° 0 mm 9 m/S 756 mmHg 57%
    14:00 +11°C° 0.1 mm 9 m/S 756 mmHg 56%
    15:00 +11°C° 0.1 mm 9 m/S 756 mmHg 56%
    16:00 +11°C° 0.1 mm 8 m/S 756 mmHg 55%
    17:00 +10°C° 0.1 mm 7 m/S 757 mmHg 60%
    18:00 +9°C° 0.1 mm 6 m/S 757 mmHg 64%
    19:00 +8°C° 0.1 mm 5 m/S 758 mmHg 68%
    20:00 +7°C° 0.1 mm 5 m/S 758 mmHg 70%
    21:00 +7°C° 0.1 mm 5 m/S 759 mmHg 72%
    22:00 +7°C° 0.1 mm 5 m/S 759 mmHg 75%
    23:00 +6°C° 0 mm 5 m/S 760 mmHg 76%

    Morgen, 25 September, Dienstag

    Zeit Temperatur Niederschläge Wind Luftdruck Luftfeuchtigkeit
    00:00 +6°C° 0 mm 5 m/S 760 mmHg 77%
    01:00 +6°C° 0 mm 5 m/S 761 mmHg 78%
    02:00 +5°C° 0 mm 5 m/S 761 mmHg 79%
    03:00 +5°C° 0 mm 5 m/S 762 mmHg 80%
    04:00 +5°C° 0 mm 5 m/S 762 mmHg 80%
    05:00 +5°C° 0 mm 5 m/S 763 mmHg 80%
    06:00 +5°C° 0 mm 5 m/S 763 mmHg 80%
    07:00 +5°C° 0 mm 5 m/S 764 mmHg 80%
    08:00 +5°C° 0 mm 6 m/S 764 mmHg 74%
    09:00 +8°C° 0 mm 6 m/S 765 mmHg 68%
    10:00 +10°C° 0 mm 6 m/S 765 mmHg 62%
    11:00 +10°C° 0.1 mm 5 m/S 765 mmHg 57%
    12:00 +12°C° 0.1 mm 5 m/S 765 mmHg 53%
    13:00 +13°C° 0.1 mm 5 m/S 765 mmHg 48%
    14:00 +13°C° 0 mm 5 m/S 765 mmHg 48%
    15:00 +13°C° 0 mm 5 m/S 765 mmHg 48%
    16:00 +13°C° 0 mm 4 m/S 765 mmHg 49%
    17:00 +11°C° 0 mm 4 m/S 766 mmHg 54%
    18:00 +10°C° 0 mm 3 m/S 766 mmHg 60%
    19:00 +8°C° 0 mm 2 m/S 767 mmHg 66%
    20:00 +8°C° 0 mm 2 m/S 767 mmHg 67%
    21:00 +8°C° 0 mm 2 m/S 767 mmHg 69%
    22:00 +7°C° 0 mm 2 m/S 768 mmHg 70%
    23:00 +7°C° 0 mm 2 m/S 768 mmHg 71%

    übermorgen, 26 September, Mittwoch

    Zeit Temperatur Niederschläge Wind Luftdruck Luftfeuchtigkeit
    00:00 +6°C° 0 mm 2 m/S 768 mmHg 72%
    01:00 +6°C° 0 mm 2 m/S 768 mmHg 73%
    02:00 +6°C° 0 mm 2 m/S 767 mmHg 73%
    03:00 +6°C° 0 mm 2 m/S 767 mmHg 74%
    04:00 +5°C° 0 mm 2 m/S 767 mmHg 74%
    05:00 +6°C° 0 mm 2 m/S 767 mmHg 73%
    06:00 +6°C° 0 mm 2 m/S 767 mmHg 72%
    07:00 +6°C° 0 mm 2 m/S 767 mmHg 71%
    08:00 +9°C° 0 mm 2 m/S 767 mmHg 63%
    09:00 +11°C° 0 mm 3 m/S 767 mmHg 55%
    10:00 +13°C° 0 mm 3 m/S 767 mmHg 48%
    11:00 +14°C° 0 mm 4 m/S 766 mmHg 44%
    12:00 +15°C° 0 mm 4 m/S 765 mmHg 41%
    13:00 +17°C° 0 mm 4 m/S 765 mmHg 38%
    14:00 +17°C° 0 mm 4 m/S 764 mmHg 39%
    15:00 +17°C° 0 mm 4 m/S 764 mmHg 41%
    16:00 +17°C° 0 mm 4 m/S 763 mmHg 42%
    17:00 +14°C° 0 mm 3 m/S 763 mmHg 46%
    18:00 +13°C° 0 mm 3 m/S 763 mmHg 49%
    19:00 +12°C° 0 mm 3 m/S 763 mmHg 52%
    20:00 +11°C° 0 mm 3 m/S 763 mmHg 52%
    21:00 +11°C° 0 mm 4 m/S 763 mmHg 52%
    22:00 +11°C° 0 mm 4 m/S 763 mmHg 52%
    23:00 +11°C° 0 mm 4 m/S 762 mmHg 52%

    27 September, Donnerstag

    Zeit Temperatur Niederschläge Wind Luftdruck Luftfeuchtigkeit
    00:00 +11°C° 0 mm 4 m/S 762 mmHg 52%
    01:00 +11°C° 0 mm 4 m/S 762 mmHg 52%
    02:00 +11°C° 0 mm 4 m/S 762 mmHg 53%
    03:00 +11°C° 0 mm 4 m/S 762 mmHg 53%
    04:00 +11°C° 0 mm 4 m/S 761 mmHg 53%
    05:00 +11°C° 0 mm 4 m/S 761 mmHg 54%
    06:00 +11°C° 0 mm 4 m/S 761 mmHg 55%
    07:00 +11°C° 0 mm 4 m/S 761 mmHg 55%
    08:00 +13°C° 0 mm 4 m/S 761 mmHg 54%
    09:00 +15°C° 0 mm 5 m/S 761 mmHg 53%
    10:00 +17°C° 0 mm 5 m/S 761 mmHg 51%
    11:00 +19°C° 0 mm 5 m/S 761 mmHg 52%
    12:00 +20°C° 0 mm 5 m/S 761 mmHg 53%
    13:00 +21°C° 0 mm 5 m/S 760 mmHg 54%
    14:00 +21°C° 0 mm 4 m/S 760 mmHg 55%
    15:00 +21°C° 0 mm 4 m/S 759 mmHg 56%
    16:00 +21°C° 0 mm 3 m/S 759 mmHg 57%
    17:00 +20°C° 0 mm 3 m/S 759 mmHg 62%
    18:00 +18°C° 0 mm 3 m/S 759 mmHg 67%
    19:00 +17°C° 0 mm 2 m/S 759 mmHg 73%
    20:00 +16°C° 0 mm 2 m/S 758 mmHg 72%
    21:00 +16°C° 0 mm 2 m/S 758 mmHg 72%
    22:00 +15°C° 0 mm 2 m/S 758 mmHg 72%
    23:00 +15°C° 0 mm 2 m/S 758 mmHg 70%

    28 September, Freitag

    Zeit Temperatur Niederschläge Wind Luftdruck Luftfeuchtigkeit
    00:00 +15°C° 0 mm 2 m/S 757 mmHg 69%
    01:00 +15°C° 0 mm 2 m/S 757 mmHg 67%
    02:00 +14°C° 0 mm 2 m/S 756 mmHg 66%
    03:00 +14°C° 0 mm 2 m/S 756 mmHg 65%
    04:00 +13°C° 0 mm 3 m/S 756 mmHg 64%
    05:00 +13°C° 0 mm 3 m/S 756 mmHg 65%
    06:00 +13°C° 0 mm 3 m/S 756 mmHg 65%
    07:00 +13°C° 0 mm 3 m/S 755 mmHg 65%
    08:00 +14°C° 0 mm 3 m/S 756 mmHg 61%
    09:00 +17°C° 0 mm 3 m/S 756 mmHg 56%
    10:00 +19°C° 0 mm 3 m/S 756 mmHg 52%
    11:00 +20°C° 0 mm 3 m/S 756 mmHg 51%
    12:00 +20°C° 0 mm 3 m/S 755 mmHg 50%
    13:00 +21°C° 0 mm 3 m/S 755 mmHg 49%
    14:00 +21°C° 0 mm 3 m/S 755 mmHg 51%
    15:00 +20°C° 0 mm 3 m/S 755 mmHg 54%
    16:00 +20°C° 0 mm 3 m/S 754 mmHg 56%
    17:00 +18°C° 0 mm 3 m/S 755 mmHg 62%
    18:00 +17°C° 0 mm 3 m/S 755 mmHg 68%
    19:00 +15°C° 0 mm 2 m/S 755 mmHg 74%
    20:00 +15°C° 0 mm 2 m/S 755 mmHg 74%
    21:00 +15°C° 0 mm 2 m/S 755 mmHg 75%
    22:00 +14°C° 0 mm 2 m/S 755 mmHg 76%
    23:00 +14°C° 0 mm 2 m/S 755 mmHg 74%

    29 September, Samstag

    Zeit Temperatur Niederschläge Wind Luftdruck Luftfeuchtigkeit
    00:00 +14°C° 0 mm 2 m/S 755 mmHg 73%
    01:00 +12°C° 0 mm 3 m/S 756 mmHg 72%
    02:00 +12°C° 0.1 mm 3 m/S 756 mmHg 74%
    03:00 +11°C° 0.1 mm 3 m/S 756 mmHg 76%
    04:00 +10°C° 0.1 mm 3 m/S 756 mmHg 78%
    05:00 +10°C° 0 mm 3 m/S 756 mmHg 79%
    06:00 +9°C° 0 mm 3 m/S 757 mmHg 79%
    07:00 +9°C° 0 mm 3 m/S 757 mmHg 80%
    08:00 +10°C° 0 mm 3 m/S 758 mmHg 72%
    09:00 +11°C° 0 mm 3 m/S 758 mmHg 65%
    10:00 +12°C° 0 mm 4 m/S 758 mmHg 58%
    11:00 +13°C° 0 mm 3 m/S 758 mmHg 53%
    12:00 +14°C° 0 mm 3 m/S 758 mmHg 49%
    13:00 +14°C° 0 mm 3 m/S 758 mmHg 44%
    14:00 +14°C° 0 mm 3 m/S 758 mmHg 44%
    15:00 +14°C° 0 mm 3 m/S 758 mmHg 45%
    16:00 +15°C° 0 mm 2 m/S 758 mmHg 45%
    17:00 +13°C° 0 mm 2 m/S 758 mmHg 50%
    18:00 +12°C° 0 mm 1 m/S 758 mmHg 55%
    19:00 +11°C° 0 mm 1 m/S 758 mmHg 60%
    20:00 +10°C° 0 mm 1 m/S 758 mmHg 62%
    21:00 +9°C° 0 mm 0 m/S 758 mmHg 64%
    22:00 +8°C° 0 mm 0 m/S 758 mmHg 65%
    23:00 +9°C° 0 mm 1 m/S 758 mmHg 66%
    Mehr zeigen